Time,TemperatureF,DewpointF,PressureIn,WindDirection,WindDirectionDegrees,WindSpeedMPH,WindSpeedGustMPH,Humidity,HourlyPrecipIn,Conditions,Clouds,dailyrainin,SolarRadiationWatts/m^2,SoftwareType,DateUTC
2013-02-16 00:03:00,43.5,31.0,30.27,North,355,2.0,4.0,61,0.00,,---,0.00,0.00,VWS V14.01,2013-02-16 08:03:00,
2013-02-16 00:08:00,43.5,31.0,30.27,NNE,19,5.0,8.0,61,0.00,,---,0.00,0.00,VWS V14.01,2013-02-16 08:08:00,
2013-02-16 00:13:00,44.2,31.2,30.27,ENE,67,9.0,10.0,60,0.00,,---,0.00,0.00,VWS V14.01,2013-02-16 08:13:00,
2013-02-16 00:18:00,44.8,31.4,30.27,North,9,8.0,11.0,59,0.00,,---,0.00,0.00,VWS V14.01,2013-02-16 08:18:00,
2013-02-16 00:23:00,45.3,31.0,30.27,NE,41,4.0,11.0,57,0.00,,---,0.00,0.00,VWS V14.01,2013-02-16 08:23:00,
2013-02-16 00:28:00,45.6,31.3,30.27,NNE,17,4.0,11.0,57,0.00,,---,0.00,0.00,VWS V14.01,2013-02-16 08:28:00,
2013-02-16 00:33:00,45.7,30.9,30.27,NNE,15,5.0,8.0,56,0.00,,---,0.00,0.00,VWS V14.01,2013-02-16 08:33:00,
2013-02-16 00:38:00,45.7,30.9,30.27,NNE,22,5.0,8.0,56,0.00,,---,0.00,0.00,VWS V14.01,2013-02-16 08:38:00,
2013-02-16 00:43:00,45.7,30.9,30.27,NNE,30,7.0,9.0,56,0.00,,---,0.00,0.00,VWS V14.01,2013-02-16 08:43:00,
2013-02-16 00:48:00,45.8,30.6,30.26,North,11,6.0,11.0,55,0.00,,---,0.00,0.00,VWS V14.01,2013-02-16 08:48:00,
2013-02-16 00:53:00,46.0,30.8,30.26,NE,36,5.0,11.0,55,0.00,,---,0.00,0.00,VWS V14.01,2013-02-16 08:53:00,
2013-02-16 00:58:00,46.1,30.4,30.26,NE,51,6.0,11.0,54,0.00,,---,0.00,0.00,VWS V14.01,2013-02-16 08:58:00,
2013-02-16 01:03:00,46.0,30.3,30.26,NE,40,6.0,9.0,54,0.00,,---,0.00,0.00,VWS V14.01,2013-02-16 09:03:00,
2013-02-16 01:08:00,45.9,30.2,30.26,NE,50,6.0,9.0,54,0.00,,---,0.00,0.00,VWS V14.01,2013-02-16 09:08:00,
2013-02-16 01:13:00,46.0,29.8,30.26,NE,36,4.0,9.0,53,0.00,,---,0.00,0.00,VWS V14.01,2013-02-16 09:13:00,
2013-02-16 01:18:00,46.0,29.8,30.25,NE,44,8.0,9.0,53,0.00,,---,0.00,0.00,VWS V14.01,2013-02-16 09:18:00,
2013-02-16 01:22:00,46.0,30.3,30.25,NE,34,7.0,9.0,54,0.00,,---,0.00,0.00,VWS V14.01,2013-02-16 09:22:00,
2013-02-16 01:27:00,45.9,30.2,30.25,NNE,32,6.0,12.0,54,0.00,,---,0.00,0.00,VWS V14.01,2013-02-16 09:27:00,
2013-02-16 01:32:00,45.8,30.1,30.25,NNE,30,6.0,11.0,54,0.00,,---,0.00,0.00,VWS V14.01,2013-02-16 09:32:00,
2013-02-16 01:37:00,45.3,30.1,30.25,North,5,7.0,11.0,55,0.00,,---,0.00,0.00,VWS V14.01,2013-02-16 09:37:00,
2013-02-16 01:42:00,44.4,30.1,30.25,NNE,24,6.0,11.0,57,0.00,,---,0.00,0.00,VWS V14.01,2013-02-16 09:42:00,
2013-02-16 01:47:00,43.8,30.0,30.25,ENE,65,9.0,12.0,58,0.00,,---,0.00,0.00,VWS V14.01,2013-02-16 09:47:00,
2013-02-16 01:52:00,43.3,30.0,30.25,NE,40,6.0,13.0,59,0.00,,---,0.00,0.00,VWS V14.01,2013-02-16 09:52:00,
2013-02-16 01:57:00,42.9,30.0,30.25,NNE,25,6.0,13.0,60,0.00,,---,0.00,0.00,VWS V14.01,2013-02-16 09:57:00,
2013-02-16 02:02:00,42.8,29.9,30.25,NE,36,6.0,11.0,60,0.00,,---,0.00,0.00,VWS V14.01,2013-02-16 10:02:00,
2013-02-16 02:07:00,42.7,29.8,30.25,NE,34,6.0,13.0,60,0.00,,---,0.00,0.00,VWS V14.01,2013-02-16 10:07:00,
2013-02-16 02:12:00,42.6,29.7,30.24,NNE,33,10.0,14.0,60,0.00,,---,0.00,0.00,VWS V14.01,2013-02-16 10:12:00,
2013-02-16 02:17:00,42.6,29.7,30.24,NNE,25,9.0,14.0,60,0.00,,---,0.00,0.00,VWS V14.01,2013-02-16 10:17:00,
2013-02-16 02:22:00,42.5,29.6,30.24,North,5,6.0,14.0,60,0.00,,---,0.00,0.00,VWS V14.01,2013-02-16 10:22:00,
2013-02-16 02:27:00,42.3,29.4,30.24,NNE,32,9.0,14.0,60,0.00,,---,0.00,0.00,VWS V14.01,2013-02-16 10:27:00,
2013-02-16 02:32:00,42.0,29.1,30.23,North,9,8.0,12.0,60,0.00,,---,0.00,0.00,VWS V14.01,2013-02-16 10:32:00,
2013-02-16 02:37:00,42.0,29.5,30.23,NE,37,9.0,12.0,61,0.00,,---,0.00,0.00,VWS V14.01,2013-02-16 10:37:00,
2013-02-16 02:42:00,42.0,29.5,30.24,NNE,28,8.0,12.0,61,0.00,,---,0.00,0.00,VWS V14.01,2013-02-16 10:42:00,
2013-02-16 02:47:00,42.0,29.1,30.23,NE,34,11.0,12.0,60,0.00,,---,0.00,0.00,VWS V14.01,2013-02-16 10:47:00,
2013-02-16 02:52:00,42.1,29.2,30.23,North,11,7.0,13.0,60,0.00,,---,0.00,0.00,VWS V14.01,2013-02-16 10:52:00,
2013-02-16 02:57:00,42.0,29.1,30.23,NE,34,7.0,13.0,60,0.00,,---,0.00,0.00,VWS V14.01,2013-02-16 10:57:00,
2013-02-16 03:02:00,42.0,28.7,30.23,NE,38,8.0,9.0,59,0.00,,---,0.00,0.00,VWS V14.01,2013-02-16 11:02:00,
2013-02-16 03:07:00,42.1,28.8,30.23,NNE,26,10.0,10.0,59,0.00,,---,0.00,0.00,VWS V14.01,2013-02-16 11:07:00,
2013-02-16 03:12:00,42.2,28.5,30.23,NNE,31,9.0,12.0,58,0.00,,---,0.00,0.00,VWS V14.01,2013-02-16 11:12:00,
2013-02-16 03:17:00,42.2,28.1,30.22,NNE,33,11.0,13.0,57,0.00,,---,0.00,0.00,VWS V14.01,2013-02-16 11:17:00,
2013-02-16 03:22:00,42.4,28.3,30.22,NNE,26,8.0,14.0,57,0.00,,---,0.00,0.00,VWS V14.01,2013-02-16 11:22:00,
2013-02-16 03:27:00,42.5,27.9,30.22,North,5,9.0,16.0,56,0.00,,---,0.00,0.00,VWS V14.01,2013-02-16 11:27:00,
2013-02-16 03:32:00,42.4,27.8,30.22,North,355,9.0,13.0,56,0.00,,---,0.00,0.00,VWS V14.01,2013-02-16 11:32:00,
2013-02-16 03:37:00,42.3,27.7,30.21,NE,51,10.0,17.0,56,0.00,,---,0.00,0.00,VWS V14.01,2013-02-16 11:37:00,
2013-02-16 03:42:00,42.3,27.7,30.21,East,92,8.0,17.0,56,0.00,,---,0.00,0.00,VWS V14.01,2013-02-16 11:42:00,
2013-02-16 03:47:00,42.2,27.6,30.21,North,10,10.0,17.0,56,0.00,,---,0.00,0.00,VWS V14.01,2013-02-16 11:47:00,
2013-02-16 03:52:00,42.1,27.5,30.21,North,5,12.0,17.0,56,0.00,,---,0.00,0.00,VWS V14.01,2013-02-16 11:52:00,
2013-02-16 03:57:00,41.9,27.8,30.21,NNE,19,9.0,17.0,57,0.00,,---,0.00,0.00,VWS V14.01,2013-02-16 11:57:00,
2013-02-16 04:02:00,41.6,27.5,30.21,NNE,17,15.0,15.0,57,0.00,,---,0.00,0.00,VWS V14.01,2013-02-16 12:02:00,
2013-02-16 04:07:00,41.2,27.6,30.21,ENE,61,12.0,15.0,58,0.00,,---,0.00,0.00,VWS V14.01,2013-02-16 12:07:00,
2013-02-16 04:12:00,40.8,27.2,30.20,North,5,11.0,18.0,58,0.00,,---,0.00,0.00,VWS V14.01,2013-02-16 12:12:00,
2013-02-16 04:17:00,40.8,27.6,30.20,NNE,29,11.0,18.0,59,0.00,,---,0.00,0.00,VWS V14.01,2013-02-16 12:17:00,
2013-02-16 04:22:00,40.7,27.5,30.21,NNW,337,11.0,18.0,59,0.00,,---,0.00,0.00,VWS V14.01,2013-02-16 12:22:00,
2013-02-16 04:27:00,40.5,27.3,30.20,NE,36,9.0,18.0,59,0.00,,---,0.00,0.00,VWS V14.01,2013-02-16 12:27:00,
2013-02-16 04:32:00,40.1,27.4,30.20,NNE,17,10.0,13.0,60,0.00,,---,0.00,0.00,VWS V14.01,2013-02-16 12:32:00,
2013-02-16 04:37:00,39.9,27.6,30.20,NNE,13,10.0,17.0,61,0.00,,---,0.00,0.00,VWS V14.01,2013-02-16 12:37:00,
2013-02-16 04:42:00,39.7,27.4,30.20,NNE,15,15.0,17.0,61,0.00,,---,0.00,0.00,VWS V14.01,2013-02-16 12:42:00,
2013-02-16 04:47:00,39.6,27.3,30.21,North,5,7.0,17.0,61,0.00,,---,0.00,0.00,VWS V14.01,2013-02-16 12:47:00,
2013-02-16 04:52:00,39.6,27.3,30.20,NNW,347,11.0,17.0,61,0.00,,---,0.00,0.00,VWS V14.01,2013-02-16 12:52:00,
2013-02-16 04:57:00,39.6,27.7,30.21,NNE,24,10.0,17.0,62,0.00,,---,0.00,0.00,VWS V14.01,2013-02-16 12:57:00,
2013-02-16 05:02:00,39.6,27.7,30.21,NNE,24,10.0,10.0,62,0.00,,---,0.00,0.00,VWS V14.01,2013-02-16 13:02:00,
2013-02-16 05:07:00,39.7,27.4,30.21,NNE,22,12.0,17.0,61,0.00,,---,0.00,0.00,VWS V14.01,2013-02-16 13:07:00,
2013-02-16 05:12:00,40.0,27.6,30.21,NNE,30,10.0,17.0,61,0.00,,---,0.00,0.00,VWS V14.01,2013-02-16 13:12:00,
2013-02-16 05:17:00,40.3,27.5,30.20,NNE,15,10.0,17.0,60,0.00,,---,0.00,0.00,VWS V14.01,2013-02-16 13:17:00,
2013-02-16 05:22:00,40.5,27.7,30.21,NNE,30,12.0,17.0,60,0.00,,---,0.00,0.00,VWS V14.01,2013-02-16 13:22:00,
2013-02-16 05:27:00,40.5,27.3,30.21,NE,38,7.0,17.0,59,0.00,,---,0.00,0.00,VWS V14.01,2013-02-16 13:27:00,
2013-02-16 05:32:00,40.4,27.6,30.20,NNE,30,10.0,14.0,60,0.00,,---,0.00,0.00,VWS V14.01,2013-02-16 13:32:00,
2013-02-16 05:37:00,40.4,27.6,30.20,NE,40,10.0,14.0,60,0.00,,---,0.00,0.00,VWS V14.01,2013-02-16 13:37:00,
2013-02-16 05:42:00,40.4,27.2,30.20,North,5,12.0,14.0,59,0.00,,---,0.00,0.00,VWS V14.01,2013-02-16 13:42:00,
2013-02-16 05:47:00,40.5,27.3,30.20,NE,36,9.0,14.0,59,0.00,,---,0.00,0.00,VWS V14.01,2013-02-16 13:47:00,
2013-02-16 05:52:00,40.6,27.4,30.20,North,360,7.0,14.0,59,0.00,,---,0.00,0.00,VWS V14.01,2013-02-16 13:52:00,
2013-02-16 05:57:00,40.6,27.4,30.20,NNE,30,8.0,14.0,59,0.00,,---,0.00,0.00,VWS V14.01,2013-02-16 13:57:00,
2013-02-16 06:02:00,40.6,27.4,30.19,NNE,13,7.0,13.0,59,0.00,,---,0.00,0.00,VWS V14.01,2013-02-16 14:02:00,
2013-02-16 06:07:00,40.4,27.2,30.19,NE,38,13.0,19.0,59,0.00,,---,0.00,0.00,VWS V14.01,2013-02-16 14:07:00,
2013-02-16 06:12:00,40.4,27.6,30.19,NNE,17,9.0,19.0,60,0.00,,---,0.00,0.00,VWS V14.01,2013-02-16 14:12:00,
2013-02-16 06:17:00,40.3,27.5,30.19,North,11,12.0,20.0,60,0.00,,---,0.00,0.00,VWS V14.01,2013-02-16 14:17:00,
2013-02-16 06:22:00,40.3,27.5,30.18,North,350,9.0,20.0,60,0.00,,---,0.00,0.00,VWS V14.01,2013-02-16 14:22:00,
2013-02-16 06:27:00,40.1,27.4,30.18,North,360,10.0,20.0,60,0.00,,---,0.00,0.00,VWS V14.01,2013-02-16 14:27:00,
2013-02-16 06:32:00,39.8,27.1,30.18,NE,48,12.0,17.0,60,0.00,,---,0.00,0.00,VWS V14.01,2013-02-16 14:32:00,
2013-02-16 06:37:00,39.8,27.1,30.18,North,360,10.0,18.0,60,0.00,,---,0.00,0.00,VWS V14.01,2013-02-16 14:37:00,
2013-02-16 06:42:00,39.6,27.3,30.18,North,9,9.0,18.0,61,0.00,,---,0.00,0.00,VWS V14.01,2013-02-16 14:42:00,
2013-02-16 06:47:00,39.5,27.2,30.18,NNE,32,16.0,18.0,61,0.00,,---,0.00,0.00,VWS V14.01,2013-02-16 14:47:00,
2013-02-16 06:52:00,39.3,27.0,30.18,North,5,11.0,19.0,61,0.00,,---,0.00,0.00,VWS V14.01,2013-02-16 14:52:00,
2013-02-16 06:57:00,39.1,26.8,30.18,North,360,13.0,19.0,61,0.00,,---,0.00,0.00,VWS V14.01,2013-02-16 14:57:00,
2013-02-16 07:02:00,39.0,27.1,30.18,NNE,17,10.0,21.0,62,0.00,,---,0.00,0.00,VWS V14.01,2013-02-16 15:02:00,
2013-02-16 07:07:00,38.8,26.9,30.18,NE,46,10.0,21.0,62,0.00,,---,0.00,5.00,VWS V14.01,2013-02-16 15:07:00,
2013-02-16 07:12:00,38.6,27.1,30.18,NNE,26,11.0,21.0,63,0.00,,---,0.00,7.00,VWS V14.01,2013-02-16 15:12:00,
2013-02-16 07:17:00,38.2,26.7,30.18,NNE,26,12.0,21.0,63,0.00,,---,0.00,11.00,VWS V14.01,2013-02-16 15:17:00,
2013-02-16 07:22:00,38.2,27.1,30.18,NE,40,9.0,21.0,64,0.00,,---,0.00,12.00,VWS V14.01,2013-02-16 15:22:00,
2013-02-16 07:27:00,38.1,27.0,30.18,NNE,13,10.0,21.0,64,0.00,,---,0.00,14.00,VWS V14.01,2013-02-16 15:27:00,
2013-02-16 07:32:00,38.0,26.9,30.18,NNE,24,11.0,16.0,64,0.00,,---,0.00,16.00,VWS V14.01,2013-02-16 15:32:00,
2013-02-16 07:37:00,38.1,27.0,30.18,NE,38,9.0,16.0,64,0.00,,---,0.00,18.00,VWS V14.01,2013-02-16 15:37:00,
2013-02-16 07:42:00,38.3,27.2,30.18,NNE,19,9.0,17.0,64,0.00,,---,0.00,19.00,VWS V14.01,2013-02-16 15:42:00,
2013-02-16 07:47:00,38.6,27.1,30.18,NNE,13,10.0,17.0,63,0.00,,---,0.00,19.00,VWS V14.01,2013-02-16 15:47:00,
2013-02-16 07:52:00,38.7,27.2,30.18,NNW,344,12.0,19.0,63,0.00,,---,0.00,21.00,VWS V14.01,2013-02-16 15:52:00,
2013-02-16 07:57:00,38.8,27.3,30.18,North,5,11.0,20.0,63,0.00,,---,0.00,21.00,VWS V14.01,2013-02-16 15:57:00,
2013-02-16 08:02:00,39.0,27.5,30.18,NNE,24,7.0,14.0,63,0.00,,---,0.00,21.00,VWS V14.01,2013-02-16 16:02:00,
2013-02-16 08:07:00,39.3,27.4,30.18,NNW,336,16.0,17.0,62,0.00,,---,0.00,23.00,VWS V14.01,2013-02-16 16:07:00,
2013-02-16 08:12:00,39.7,27.4,30.18,NE,36,9.0,18.0,61,0.00,,---,0.00,25.00,VWS V14.01,2013-02-16 16:12:00,
2013-02-16 08:17:00,40.0,27.6,30.18,NNE,30,10.0,18.0,61,0.00,,---,0.00,25.00,VWS V14.01,2013-02-16 16:17:00,
2013-02-16 08:22:00,40.3,27.5,30.18,NE,40,9.0,18.0,60,0.00,,---,0.00,26.00,VWS V14.01,2013-02-16 16:22:00,
2013-02-16 08:27:00,40.6,27.4,30.17,North,5,12.0,18.0,59,0.00,,---,0.00,28.00,VWS V14.01,2013-02-16 16:27:00,
2013-02-16 08:32:00,41.1,27.9,30.17,NE,35,12.0,16.0,59,0.00,,---,0.00,32.00,VWS V14.01,2013-02-16 16:32:00,
2013-02-16 08:37:00,41.5,27.4,30.17,NNE,16,6.0,16.0,57,0.00,,---,0.00,155.00,VWS V14.01,2013-02-16 16:37:00,
2013-02-16 08:42:00,42.0,27.9,30.17,NNE,13,14.0,16.0,57,0.00,,---,0.00,114.00,VWS V14.01,2013-02-16 16:42:00,
2013-02-16 08:47:00,42.4,27.8,30.17,NNE,18,10.0,16.0,56,0.00,,---,0.00,32.00,VWS V14.01,2013-02-16 16:47:00,
2013-02-16 08:52:00,42.8,27.8,30.17,NE,38,17.0,18.0,55,0.00,,---,0.00,33.00,VWS V14.01,2013-02-16 16:52:00,
2013-02-16 08:57:00,43.4,28.3,30.17,North,5,12.0,18.0,55,0.00,,---,0.00,44.00,VWS V14.01,2013-02-16 16:57:00,
2013-02-16 09:02:00,43.9,28.4,30.17,NE,45,7.0,17.0,54,0.00,,---,0.00,33.00,VWS V14.01,2013-02-16 17:02:00,
2013-02-16 09:07:00,44.4,28.4,30.17,NNW,347,9.0,17.0,53,0.00,,---,0.00,47.00,VWS V14.01,2013-02-16 17:07:00,
2013-02-16 09:12:00,44.7,28.6,30.18,NNE,22,9.0,19.0,53,0.00,,---,0.00,47.00,VWS V14.01,2013-02-16 17:12:00,
2013-02-16 09:17:00,44.8,28.7,30.17,North,5,6.0,19.0,53,0.00,,---,0.00,35.00,VWS V14.01,2013-02-16 17:17:00,
2013-02-16 09:22:00,44.9,28.8,30.17,NNE,20,4.0,19.0,53,0.00,,---,0.00,37.00,VWS V14.01,2013-02-16 17:22:00,
2013-02-16 09:27:00,44.8,28.7,30.17,North,5,4.0,19.0,53,0.00,,---,0.00,37.00,VWS V14.01,2013-02-16 17:27:00,
2013-02-16 09:32:00,44.9,28.8,30.17,NE,40,7.0,9.0,53,0.00,,---,0.00,37.00,VWS V14.01,2013-02-16 17:32:00,
2013-02-16 09:37:00,44.9,28.8,30.17,NE,49,3.0,10.0,53,0.00,,---,0.00,42.00,VWS V14.01,2013-02-16 17:37:00,
2013-02-16 09:42:00,45.0,28.9,30.17,NE,46,4.0,10.0,53,0.00,,---,0.00,39.00,VWS V14.01,2013-02-16 17:42:00,
2013-02-16 09:47:00,45.2,29.1,30.17,ENE,61,10.0,10.0,53,0.00,,---,0.00,56.00,VWS V14.01,2013-02-16 17:47:00,
2013-02-16 09:52:00,45.4,29.3,30.17,NE,50,2.0,10.0,53,0.00,,---,0.00,67.00,VWS V14.01,2013-02-16 17:52:00,
2013-02-16 09:57:00,45.6,29.5,30.17,South,179,3.0,10.0,53,0.00,,---,0.00,42.00,VWS V14.01,2013-02-16 17:57:00,
2013-02-16 10:02:00,46.1,29.5,30.17,East,100,6.0,6.0,52,0.00,,---,0.00,44.00,VWS V14.01,2013-02-16 18:02:00,
2013-02-16 10:07:00,46.6,29.9,30.16,NE,39,2.0,10.0,52,0.00,,---,0.00,100.00,VWS V14.01,2013-02-16 18:07:00,
2013-02-16 10:12:00,46.8,29.6,30.16,North,5,6.0,10.0,51,0.00,,---,0.00,128.00,VWS V14.01,2013-02-16 18:12:00,
2013-02-16 10:17:00,46.8,29.6,30.16,NNE,21,6.0,11.0,51,0.00,,---,0.00,132.00,VWS V14.01,2013-02-16 18:17:00,
2013-02-16 10:22:00,46.7,30.0,30.16,North,5,4.0,11.0,52,0.00,,---,0.00,111.00,VWS V14.01,2013-02-16 18:22:00,
2013-02-16 10:27:00,46.5,29.8,30.16,NNE,13,7.0,11.0,52,0.00,,---,0.00,93.00,VWS V14.01,2013-02-16 18:27:00,
2013-02-16 10:32:00,46.3,30.1,30.16,NNE,23,6.0,13.0,53,0.00,,---,0.00,98.00,VWS V14.01,2013-02-16 18:32:00,
2013-02-16 10:37:00,46.3,30.1,30.15,North,5,8.0,13.0,53,0.00,,---,0.00,98.00,VWS V14.01,2013-02-16 18:37:00,
2013-02-16 10:42:00,46.3,30.1,30.15,NNE,21,5.0,13.0,53,0.00,,---,0.00,104.00,VWS V14.01,2013-02-16 18:42:00,
2013-02-16 10:47:00,46.6,30.4,30.15,NNE,20,8.0,13.0,53,0.00,,---,0.00,93.00,VWS V14.01,2013-02-16 18:47:00,
2013-02-16 10:52:00,47.0,30.8,30.15,ENE,65,8.0,13.0,53,0.00,,---,0.00,628.00,VWS V14.01,2013-02-16 18:52:00,
2013-02-16 10:57:00,48.7,30.9,30.15,ENE,59,5.0,13.0,50,0.00,,---,0.00,128.00,VWS V14.01,2013-02-16 18:57:00,
2013-02-16 11:02:00,49.9,31.5,30.15,NE,44,8.0,12.0,49,0.00,,---,0.00,619.00,VWS V14.01,2013-02-16 19:02:00,
2013-02-16 11:07:00,50.8,31.8,30.15,ENE,58,7.0,16.0,48,0.00,,---,0.00,629.00,VWS V14.01,2013-02-16 19:07:00,
2013-02-16 11:12:00,51.5,32.0,30.15,NE,46,6.0,16.0,47,0.00,,---,0.00,599.00,VWS V14.01,2013-02-16 19:12:00,
2013-02-16 11:17:00,51.8,31.7,30.15,ESE,117,4.0,16.0,46,0.00,,---,0.00,643.00,VWS V14.01,2013-02-16 19:17:00,
2013-02-16 11:22:00,52.1,31.4,30.15,SSE,148,8.0,16.0,45,0.00,,---,0.00,668.00,VWS V14.01,2013-02-16 19:22:00,
2013-02-16 11:27:00,52.3,31.6,30.15,NE,46,7.0,16.0,45,0.00,,---,0.00,229.00,VWS V14.01,2013-02-16 19:27:00,
2013-02-16 11:32:00,52.5,31.2,30.15,SE,142,12.0,16.0,44,0.00,,---,0.00,163.00,VWS V14.01,2013-02-16 19:32:00,
2013-02-16 11:37:00,52.3,31.0,30.15,SE,128,11.0,16.0,44,0.00,,---,0.00,179.00,VWS V14.01,2013-02-16 19:37:00,
2013-02-16 11:42:00,52.2,31.5,30.15,SSE,152,11.0,16.0,45,0.00,,---,0.00,243.00,VWS V14.01,2013-02-16 19:42:00,
2013-02-16 11:47:00,51.8,31.1,30.15,East,91,10.0,16.0,45,0.00,,---,0.00,216.00,VWS V14.01,2013-02-16 19:47:00,
2013-02-16 11:52:00,51.4,31.3,30.15,SSE,159,4.0,16.0,46,0.00,,---,0.00,306.00,VWS V14.01,2013-02-16 19:52:00,
2013-02-16 11:57:00,51.3,31.8,30.14,East,83,10.0,16.0,47,0.00,,---,0.00,192.00,VWS V14.01,2013-02-16 19:57:00,
2013-02-16 12:02:00,51.1,31.6,30.14,SSE,158,3.0,10.0,47,0.00,,---,0.00,200.00,VWS V14.01,2013-02-16 20:02:00,
2013-02-16 12:07:00,50.8,31.8,30.15,ESE,120,13.0,13.0,48,0.00,,---,0.00,227.00,VWS V14.01,2013-02-16 20:07:00,
2013-02-16 12:12:00,50.8,32.3,30.15,East,101,5.0,14.0,49,0.00,,---,0.00,316.00,VWS V14.01,2013-02-16 20:12:00,
2013-02-16 12:17:00,51.0,32.5,30.15,ESE,120,11.0,16.0,49,0.00,,---,0.00,241.00,VWS V14.01,2013-02-16 20:17:00,
2013-02-16 12:22:00,50.9,32.9,30.15,East,79,10.0,16.0,50,0.00,,---,0.00,272.00,VWS V14.01,2013-02-16 20:22:00,
2013-02-16 12:27:00,50.4,33.0,30.14,ENE,78,10.0,16.0,51,0.00,,---,0.00,309.00,VWS V14.01,2013-02-16 20:27:00,
2013-02-16 12:32:00,50.0,33.1,30.14,East,90,5.0,11.0,52,0.00,,---,0.00,279.00,VWS V14.01,2013-02-16 20:32:00,
2013-02-16 12:37:00,50.3,33.8,30.14,ESE,118,3.0,14.0,53,0.00,,---,0.00,279.00,VWS V14.01,2013-02-16 20:37:00,
2013-02-16 12:42:00,50.4,33.5,30.14,ENE,69,5.0,14.0,52,0.00,,---,0.00,332.00,VWS V14.01,2013-02-16 20:42:00,
2013-02-16 12:47:00,50.9,32.9,30.13,SE,129,10.0,15.0,50,0.00,,---,0.00,369.00,VWS V14.01,2013-02-16 20:47:00,
2013-02-16 12:52:00,50.6,32.2,30.13,East,89,9.0,16.0,49,0.00,,---,0.00,236.00,VWS V14.01,2013-02-16 20:52:00,
2013-02-16 12:57:00,50.3,32.9,30.13,ESE,122,5.0,16.0,51,0.00,,---,0.00,656.00,VWS V14.01,2013-02-16 20:57:00,
2013-02-16 13:02:00,50.4,33.0,30.13,ESE,112,10.0,16.0,51,0.00,,---,0.00,649.00,VWS V14.01,2013-02-16 21:02:00,
2013-02-16 13:07:00,50.2,31.8,30.14,NE,54,6.0,18.0,49,0.00,,---,0.00,292.00,VWS V14.01,2013-02-16 21:07:00,
2013-02-16 13:12:00,49.8,31.4,30.13,ENE,63,10.0,18.0,49,0.00,,---,0.00,236.00,VWS V14.01,2013-02-16 21:12:00,
2013-02-16 13:17:00,49.4,31.6,30.13,ESE,103,12.0,18.0,50,0.00,,---,0.00,257.00,VWS V14.01,2013-02-16 21:17:00,
2013-02-16 13:22:00,49.1,30.3,30.13,ENE,65,13.0,18.0,48,0.00,,---,0.00,214.00,VWS V14.01,2013-02-16 21:22:00,
2013-02-16 13:27:00,48.5,29.7,30.13,ENE,77,9.0,18.0,48,0.00,,---,0.00,158.00,VWS V14.01,2013-02-16 21:27:00,
2013-02-16 13:32:00,48.3,30.0,30.13,East,86,7.0,11.0,49,0.00,,---,0.00,181.00,VWS V14.01,2013-02-16 21:32:00,
2013-02-16 13:37:00,48.2,30.0,30.12,East,84,7.0,13.0,49,0.00,,---,0.00,190.00,VWS V14.01,2013-02-16 21:37:00,
2013-02-16 13:42:00,48.2,30.0,30.12,NE,51,6.0,13.0,49,0.00,,---,0.00,272.00,VWS V14.01,2013-02-16 21:42:00,
2013-02-16 13:47:00,48.4,30.6,30.12,East,98,11.0,13.0,50,0.00,,---,0.00,304.00,VWS V14.01,2013-02-16 21:47:00,
2013-02-16 13:52:00,48.6,27.7,30.12,ENE,71,8.0,15.0,44,0.00,,---,0.00,251.00,VWS V14.01,2013-02-16 21:52:00,
2013-02-16 13:57:00,48.7,26.6,30.11,ENE,78,15.0,17.0,42,0.00,,---,0.00,271.00,VWS V14.01,2013-02-16 21:57:00,
2013-02-16 14:02:00,48.8,26.7,30.11,NE,55,11.0,16.0,42,0.00,,---,0.00,728.00,VWS V14.01,2013-02-16 22:02:00,
2013-02-16 14:07:00,49.4,27.3,30.11,East,88,8.0,17.0,42,0.00,,---,0.00,710.00,VWS V14.01,2013-02-16 22:07:00,
2013-02-16 14:12:00,50.0,27.2,30.11,NE,50,10.0,17.0,41,0.00,,---,0.00,622.00,VWS V14.01,2013-02-16 22:12:00,
2013-02-16 14:17:00,50.4,27.6,30.11,ENE,57,10.0,17.0,41,0.00,,---,0.00,582.00,VWS V14.01,2013-02-16 22:17:00,
2013-02-16 14:22:00,50.5,27.7,30.12,ENE,76,5.0,17.0,41,0.00,,---,0.00,568.00,VWS V14.01,2013-02-16 22:22:00,
2013-02-16 14:27:00,50.7,26.7,30.12,NE,46,8.0,17.0,39,0.00,,---,0.00,587.00,VWS V14.01,2013-02-16 22:27:00,
2013-02-16 14:32:00,51.2,27.1,30.11,NE,38,10.0,13.0,39,0.00,,---,0.00,571.00,VWS V14.01,2013-02-16 22:32:00,
2013-02-16 14:37:00,51.5,26.1,30.11,East,93,5.0,13.0,37,0.00,,---,0.00,628.00,VWS V14.01,2013-02-16 22:37:00,
2013-02-16 14:42:00,51.5,26.1,30.12,SSE,150,5.0,13.0,37,0.00,,---,0.00,311.00,VWS V14.01,2013-02-16 22:42:00,
2013-02-16 14:47:00,51.4,24.7,30.12,East,93,7.0,13.0,35,0.00,,---,0.00,135.00,VWS V14.01,2013-02-16 22:47:00,
2013-02-16 14:52:00,51.0,22.9,30.12,SE,141,8.0,13.0,33,0.00,,---,0.00,478.00,VWS V14.01,2013-02-16 22:52:00,
2013-02-16 14:57:00,50.8,23.5,30.12,East,91,6.0,15.0,34,0.00,,---,0.00,279.00,VWS V14.01,2013-02-16 22:57:00,
2013-02-16 15:02:00,50.5,21.0,30.12,East,98,8.0,10.0,31,0.00,,---,0.00,415.00,VWS V14.01,2013-02-16 23:02:00,
2013-02-16 15:07:00,50.2,21.5,30.12,ESE,105,3.0,11.0,32,0.00,,---,0.00,411.00,VWS V14.01,2013-02-16 23:07:00,
2013-02-16 15:12:00,49.9,22.7,30.12,ENE,64,4.0,11.0,34,0.00,,---,0.00,390.00,VWS V14.01,2013-02-16 23:12:00,
2013-02-16 15:17:00,49.7,21.8,30.12,NE,48,8.0,16.0,33,0.00,,---,0.00,374.00,VWS V14.01,2013-02-16 23:17:00,
2013-02-16 15:22:00,49.6,21.7,30.12,East,97,3.0,17.0,33,0.00,,---,0.00,360.00,VWS V14.01,2013-02-16 23:22:00,
2013-02-16 15:27:00,49.6,22.4,30.13,SE,144,4.0,17.0,34,0.00,,---,0.00,348.00,VWS V14.01,2013-02-16 23:27:00,
2013-02-16 15:32:00,49.5,24.3,30.13,SSE,149,5.0,10.0,37,0.00,,---,0.00,336.00,VWS V14.01,2013-02-16 23:32:00,
2013-02-16 15:37:00,48.9,25.7,30.13,SSW,196,3.0,10.0,40,0.00,,---,0.00,320.00,VWS V14.01,2013-02-16 23:37:00,
2013-02-16 15:42:00,48.2,25.0,30.13,SE,132,9.0,11.0,40,0.00,,---,0.00,306.00,VWS V14.01,2013-02-16 23:42:00,
2013-02-16 15:47:00,47.6,24.5,30.13,SE,128,6.0,13.0,40,0.00,,---,0.00,292.00,VWS V14.01,2013-02-16 23:47:00,
2013-02-16 15:52:00,47.4,24.3,30.13,SSE,147,6.0,13.0,40,0.00,,---,0.00,276.00,VWS V14.01,2013-02-16 23:52:00,
2013-02-16 15:57:00,47.3,24.2,30.13,SE,143,5.0,13.0,40,0.00,,---,0.00,260.00,VWS V14.01,2013-02-16 23:57:00,
2013-02-16 16:02:00,47.4,24.3,30.13,SSE,155,1.0,6.0,40,0.00,,---,0.00,246.00,VWS V14.01,2013-02-17 00:02:00,
2013-02-16 16:07:00,47.3,24.2,30.14,NE,56,5.0,9.0,40,0.00,,---,0.00,229.00,VWS V14.01,2013-02-17 00:07:00,
2013-02-16 16:12:00,47.1,23.4,30.13,East,100,10.0,13.0,39,0.00,,---,0.00,209.00,VWS V14.01,2013-02-17 00:12:00,
2013-02-16 16:17:00,46.8,23.2,30.13,East,82,6.0,13.0,39,0.00,,---,0.00,192.00,VWS V14.01,2013-02-17 00:17:00,
2013-02-16 16:22:00,46.6,23.6,30.14,SSE,154,4.0,13.0,40,0.00,,---,0.00,174.00,VWS V14.01,2013-02-17 00:22:00,
2013-02-16 16:27:00,46.3,25.0,30.14,SE,133,1.0,13.0,43,0.00,,---,0.00,153.00,VWS V14.01,2013-02-17 00:27:00,
2013-02-16 16:32:00,46.1,23.7,30.13,ENE,68,1.0,5.0,41,0.00,,---,0.00,139.00,VWS V14.01,2013-02-17 00:32:00,
2013-02-16 16:37:00,46.0,23.6,30.13,ENE,69,5.0,8.0,41,0.00,,---,0.00,128.00,VWS V14.01,2013-02-17 00:37:00,
2013-02-16 16:42:00,45.4,23.1,30.13,East,92,8.0,10.0,41,0.00,,---,0.00,97.00,VWS V14.01,2013-02-17 00:42:00,
2013-02-16 16:47:00,44.6,22.4,30.13,SSE,153,7.0,10.0,41,0.00,,---,0.00,23.00,VWS V14.01,2013-02-17 00:47:00,
2013-02-16 16:52:00,44.0,23.0,30.13,ENE,58,5.0,10.0,43,0.00,,---,0.00,54.00,VWS V14.01,2013-02-17 00:52:00,
2013-02-16 16:57:00,43.7,23.2,30.13,East,88,2.0,10.0,44,0.00,,---,0.00,58.00,VWS V14.01,2013-02-17 00:57:00,
2013-02-16 17:02:00,43.7,22.7,30.13,East,96,6.0,11.0,43,0.00,,---,0.00,44.00,VWS V14.01,2013-02-17 01:02:00,
2013-02-16 17:07:00,43.5,23.0,30.14,East,82,6.0,11.0,44,0.00,,---,0.00,35.00,VWS V14.01,2013-02-17 01:07:00,
2013-02-16 17:12:00,43.0,23.1,30.14,ESE,105,5.0,11.0,45,0.00,,---,0.00,14.00,VWS V14.01,2013-02-17 01:12:00,
2013-02-16 17:17:00,42.4,22.6,30.14,SE,130,4.0,11.0,45,0.00,,---,0.00,12.00,VWS V14.01,2013-02-17 01:17:00,
2013-02-16 17:22:00,42.0,22.7,30.14,ESE,108,3.0,11.0,46,0.00,,---,0.00,11.00,VWS V14.01,2013-02-17 01:22:00,
2013-02-16 17:27:00,41.6,22.9,30.14,ENE,66,2.0,11.0,47,0.00,,---,0.00,9.00,VWS V14.01,2013-02-17 01:27:00,
2013-02-16 17:32:00,41.2,23.0,30.14,East,86,1.0,2.0,48,0.00,,---,0.00,7.00,VWS V14.01,2013-02-17 01:32:00,
2013-02-16 17:37:00,40.8,23.1,30.14,ENE,57,0.0,5.0,49,0.00,,---,0.00,5.00,VWS V14.01,2013-02-17 01:37:00,
2013-02-16 17:42:00,40.4,23.2,30.15,ESE,113,0.0,5.0,50,0.00,,---,0.00,0.00,VWS V14.01,2013-02-17 01:42:00,
2013-02-16 17:47:00,39.7,23.1,30.14,ESE,113,0.0,5.0,51,0.00,,---,0.00,0.00,VWS V14.01,2013-02-17 01:47:00,
2013-02-16 17:52:00,38.7,23.1,30.14,SE,141,0.0,5.0,53,0.00,,---,0.00,0.00,VWS V14.01,2013-02-17 01:52:00,
2013-02-16 17:57:00,38.0,22.9,30.14,WNW,292,1.0,5.0,54,0.00,,---,0.00,0.00,VWS V14.01,2013-02-17 01:57:00,
2013-02-16 18:02:00,37.4,23.1,30.14,NE,42,0.0,0.0,56,0.00,,---,0.00,0.00,VWS V14.01,2013-02-17 02:02:00,
2013-02-16 18:07:00,36.9,23.1,30.14,NE,38,0.0,3.0,57,0.00,,---,0.00,0.00,VWS V14.01,2013-02-17 02:07:00,
2013-02-16 18:12:00,36.9,23.1,30.14,North,360,2.0,3.0,57,0.00,,---,0.00,0.00,VWS V14.01,2013-02-17 02:12:00,
2013-02-16 18:17:00,36.9,23.1,30.15,NE,38,1.0,3.0,57,0.00,,---,0.00,0.00,VWS V14.01,2013-02-17 02:17:00,
2013-02-16 18:22:00,36.8,23.0,30.15,NNE,28,2.0,3.0,57,0.00,,---,0.00,0.00,VWS V14.01,2013-02-17 02:22:00,
2013-02-16 18:27:00,36.6,22.8,30.15,NNW,346,0.0,3.0,57,0.00,,---,0.00,0.00,VWS V14.01,2013-02-17 02:27:00,
2013-02-16 18:32:00,36.2,22.9,30.15,WSW,246,0.0,2.0,58,0.00,,---,0.00,0.00,VWS V14.01,2013-02-17 02:32:00,
2013-02-16 18:37:00,35.5,23.0,30.15,WNW,285,3.0,3.0,60,0.00,,---,0.00,0.00,VWS V14.01,2013-02-17 02:37:00,
2013-02-16 18:42:00,34.6,23.3,30.15,WSW,255,2.0,4.0,63,0.00,,---,0.00,0.00,VWS V14.01,2013-02-17 02:42:00,
2013-02-16 18:47:00,34.3,23.4,30.15,WSW,242,4.0,5.0,64,0.00,,---,0.00,0.00,VWS V14.01,2013-02-17 02:47:00,
2013-02-16 18:52:00,34.1,23.6,30.15,WSW,237,3.0,6.0,65,0.00,,---,0.00,0.00,VWS V14.01,2013-02-17 02:52:00,
2013-02-16 18:57:00,34.3,23.8,30.16,West,269,4.0,6.0,65,0.00,,---,0.00,0.00,VWS V14.01,2013-02-17 02:57:00,
2013-02-16 19:02:00,34.5,24.3,30.15,WSW,246,2.0,3.0,66,0.00,,---,0.00,0.00,VWS V14.01,2013-02-17 03:02:00,
2013-02-16 19:07:00,34.2,24.4,30.15,WSW,254,2.0,3.0,67,0.00,,---,0.00,0.00,VWS V14.01,2013-02-17 03:07:00,
2013-02-16 19:11:00,33.8,24.7,30.15,West,272,3.0,3.0,69,0.00,,---,0.00,0.00,VWS V14.01,2013-02-17 03:11:00,
2013-02-16 19:16:00,33.3,24.9,30.15,West,271,0.0,3.0,71,0.00,,---,0.00,0.00,VWS V14.01,2013-02-17 03:16:00,
2013-02-16 19:21:00,32.9,24.9,30.15,West,272,0.0,3.0,72,0.00,,---,0.00,0.00,VWS V14.01,2013-02-17 03:21:00,
2013-02-16 19:26:00,32.4,25.0,30.15,West,272,0.0,3.0,74,0.00,,---,0.00,0.00,VWS V14.01,2013-02-17 03:26:00,
2013-02-16 19:31:00,32.2,25.2,30.15,West,272,1.0,2.0,75,0.00,,---,0.00,0.00,VWS V14.01,2013-02-17 03:31:00,
2013-02-16 19:36:00,32.4,25.4,30.15,WSW,244,3.0,6.0,75,0.00,,---,0.00,0.00,VWS V14.01,2013-02-17 03:36:00,
2013-02-16 19:41:00,32.9,25.5,30.15,NNW,332,0.0,6.0,74,0.00,,---,0.00,0.00,VWS V14.01,2013-02-17 03:41:00,
2013-02-16 19:46:00,32.9,25.2,30.15,NW,323,1.0,6.0,73,0.00,,---,0.00,0.00,VWS V14.01,2013-02-17 03:46:00,
2013-02-16 19:51:00,32.8,24.8,30.15,WNW,297,2.0,6.0,72,0.00,,---,0.00,0.00,VWS V14.01,2013-02-17 03:51:00,
2013-02-16 19:56:00,32.6,24.9,30.15,WNW,298,0.0,6.0,73,0.00,,---,0.00,0.00,VWS V14.01,2013-02-17 03:56:00,
2013-02-16 20:01:00,32.4,24.7,30.15,North,355,1.0,3.0,73,0.00,,---,0.00,0.00,VWS V14.01,2013-02-17 04:01:00,
2013-02-16 20:06:00,32.2,24.5,30.15,North,9,0.0,3.0,73,0.00,,---,0.00,0.00,VWS V14.01,2013-02-17 04:06:00,
2013-02-16 20:11:00,32.0,24.3,30.15,WNW,296,0.0,3.0,73,0.00,,---,0.00,0.00,VWS V14.01,2013-02-17 04:11:00,
2013-02-16 20:16:00,31.6,24.6,30.15,WNW,295,0.0,3.0,75,0.00,,---,0.00,0.00,VWS V14.01,2013-02-17 04:16:00,
2013-02-16 20:21:00,31.2,24.2,30.15,West,275,1.0,4.0,75,0.00,,---,0.00,0.00,VWS V14.01,2013-02-17 04:21:00,
2013-02-16 20:26:00,31.2,24.5,30.15,SW,235,5.0,7.0,76,0.00,,---,0.00,0.00,VWS V14.01,2013-02-17 04:26:00,
2013-02-16 20:31:00,31.6,25.5,30.16,WSW,257,2.0,4.0,78,0.00,,---,0.00,0.00,VWS V14.01,2013-02-17 04:31:00,
2013-02-16 20:36:00,31.6,25.9,30.16,WSW,244,3.0,4.0,79,0.00,,---,0.00,0.00,VWS V14.01,2013-02-17 04:36:00,
2013-02-16 20:41:00,31.6,25.9,30.15,WSW,244,3.0,5.0,79,0.00,,---,0.00,0.00,VWS V14.01,2013-02-17 04:41:00,
2013-02-16 20:46:00,31.7,26.5,30.15,WSW,248,6.0,7.0,81,0.00,,---,0.00,0.00,VWS V14.01,2013-02-17 04:46:00,
2013-02-16 20:51:00,31.8,26.9,30.16,SW,225,4.0,7.0,82,0.00,,---,0.00,0.00,VWS V14.01,2013-02-17 04:51:00,
2013-02-16 20:56:00,31.7,26.8,30.16,WSW,240,4.0,7.0,82,0.00,,---,0.00,0.00,VWS V14.01,2013-02-17 04:56:00,
2013-02-16 21:00:00,31.6,26.5,30.16,WSW,242,2.0,7.0,81,0.00,,---,0.00,0.00,VWS V14.01,2013-02-17 05:00:00,
2013-02-16 21:05:00,31.7,26.2,30.15,WSW,254,2.0,5.0,80,0.00,,---,0.00,0.00,VWS V14.01,2013-02-17 05:05:00,
2013-02-16 21:10:00,31.7,25.9,30.16,SW,232,3.0,5.0,79,0.00,,---,0.00,0.00,VWS V14.01,2013-02-17 05:10:00,
2013-02-16 21:15:00,32.0,26.2,30.16,SW,231,3.0,5.0,79,0.00,,---,0.00,0.00,VWS V14.01,2013-02-17 05:15:00,
2013-02-16 21:20:00,32.1,26.0,30.16,SW,236,2.0,5.0,78,0.00,,---,0.00,0.00,VWS V14.01,2013-02-17 05:20:00,
2013-02-16 21:25:00,31.9,26.1,30.16,WSW,247,3.0,5.0,79,0.00,,---,0.00,0.00,VWS V14.01,2013-02-17 05:25:00,
2013-02-16 21:30:00,31.5,26.0,30.17,WSW,244,6.0,6.0,80,0.00,,---,0.00,0.00,VWS V14.01,2013-02-17 05:30:00,
2013-02-16 21:35:00,31.5,26.0,30.16,WSW,248,4.0,6.0,80,0.00,,---,0.00,0.00,VWS V14.01,2013-02-17 05:35:00,
2013-02-16 21:40:00,31.4,26.0,30.17,West,279,2.0,6.0,80,0.00,,---,0.00,0.00,VWS V14.01,2013-02-17 05:40:00,
2013-02-16 21:45:00,31.2,26.1,30.17,SW,236,3.0,7.0,81,0.00,,---,0.00,0.00,VWS V14.01,2013-02-17 05:45:00,
2013-02-16 21:50:00,31.3,25.9,30.17,WSW,243,5.0,7.0,80,0.00,,---,0.00,0.00,VWS V14.01,2013-02-17 05:50:00,
2013-02-16 21:55:00,31.5,25.8,30.17,WSW,238,3.0,7.0,79,0.00,,---,0.00,0.00,VWS V14.01,2013-02-17 05:55:00,
2013-02-16 22:00:00,31.6,25.5,30.17,SW,236,1.0,7.0,78,0.00,,---,0.00,0.00,VWS V14.01,2013-02-17 06:00:00,
2013-02-16 22:05:00,31.7,25.3,30.17,SW,236,1.0,2.0,77,0.00,,---,0.00,0.00,VWS V14.01,2013-02-17 06:05:00,
2013-02-16 22:10:00,31.6,25.2,30.17,SSW,209,2.0,2.0,77,0.00,,---,0.00,0.00,VWS V14.01,2013-02-17 06:10:00,
2013-02-16 22:15:00,31.4,25.4,30.17,SSW,192,0.0,3.0,78,0.00,,---,0.00,0.00,VWS V14.01,2013-02-17 06:15:00,
2013-02-16 22:20:00,31.3,24.6,30.17,South,170,0.0,6.0,76,0.00,,---,0.00,0.00,VWS V14.01,2013-02-17 06:20:00,
2013-02-16 22:25:00,31.2,24.8,30.17,SE,134,0.0,6.0,77,0.00,,---,0.00,0.00,VWS V14.01,2013-02-17 06:25:00,
2013-02-16 22:30:00,30.9,24.5,30.17,WNW,290,0.0,6.0,77,0.00,,---,0.00,0.00,VWS V14.01,2013-02-17 06:30:00,
2013-02-16 22:35:00,30.6,24.3,30.17,North,355,0.0,2.0,77,0.00,,---,0.00,0.00,VWS V14.01,2013-02-17 06:35:00,
2013-02-16 22:40:00,30.3,24.3,30.17,NW,319,1.0,2.0,78,0.00,,---,0.00,0.00,VWS V14.01,2013-02-17 06:40:00,
2013-02-16 22:45:00,29.9,24.2,30.17,NW,319,2.0,2.0,79,0.00,,---,0.00,0.00,VWS V14.01,2013-02-17 06:45:00,
2013-02-16 22:50:00,29.6,23.9,30.16,NW,315,2.0,2.0,79,0.00,,---,0.00,0.00,VWS V14.01,2013-02-17 06:50:00,
2013-02-16 22:55:00,29.5,24.1,30.16,NW,304,0.0,4.0,80,0.00,,---,0.00,0.00,VWS V14.01,2013-02-17 06:55:00,
2013-02-16 23:00:00,29.4,24.0,30.16,NW,304,0.0,4.0,80,0.00,,---,0.00,0.00,VWS V14.01,2013-02-17 07:00:00,
2013-02-16 23:05:00,29.2,23.8,30.16,North,355,2.0,3.0,80,0.00,,---,0.00,0.00,VWS V14.01,2013-02-17 07:05:00,
2013-02-16 23:10:00,29.0,24.2,30.16,NNW,346,1.0,3.0,82,0.00,,---,0.00,0.00,VWS V14.01,2013-02-17 07:10:00,
2013-02-16 23:15:00,28.9,24.4,30.17,North,355,0.0,3.0,83,0.00,,---,0.00,0.00,VWS V14.01,2013-02-17 07:15:00,
2013-02-16 23:20:00,28.9,24.4,30.17,NW,315,1.0,3.0,83,0.00,,---,0.00,0.00,VWS V14.01,2013-02-17 07:20:00,
2013-02-16 23:25:00,28.8,24.3,30.17,WNW,303,0.0,3.0,83,0.00,,---,0.00,0.00,VWS V14.01,2013-02-17 07:25:00,
2013-02-16 23:30:00,28.6,23.8,30.17,SW,236,3.0,3.0,82,0.00,,---,0.00,0.00,VWS V14.01,2013-02-17 07:30:00,
2013-02-16 23:35:00,28.7,23.9,30.18,WSW,246,0.0,4.0,82,0.00,,---,0.00,0.00,VWS V14.01,2013-02-17 07:35:00,
2013-02-16 23:40:00,28.5,23.4,30.17,WSW,246,0.0,4.0,81,0.00,,---,0.00,0.00,VWS V14.01,2013-02-17 07:40:00,
2013-02-16 23:45:00,28.3,23.2,30.18,WNW,283,2.0,4.0,81,0.00,,---,0.00,0.00,VWS V14.01,2013-02-17 07:45:00,
2013-02-16 23:50:00,28.1,23.0,30.18,West,259,3.0,4.0,81,0.00,,---,0.00,0.00,VWS V14.01,2013-02-17 07:50:00,
2013-02-16 23:55:00,28.0,22.9,30.18,WSW,244,3.0,5.0,81,0.00,,---,0.00,0.00,VWS V14.01,2013-02-17 07:55:00,